Regional Weather Roundup
Issued by NWS San Angelo, TX

Home | Current Version | Previous Version | Text Only | Print | Product List | Glossary On
Versions: 1 2 3 4 5 6 7 8 9 10 11 12 13 14 15 16 17 18 19 20 21 22 23 24 25 26 27 28 29 30 31 32 33 34 35 36 37 38 39 40 41 42 43 44 45 46 47 48 49 50
000
ASUS44 KSJT 240210
RWRSJT
WEST CENTRAL TEXAS REGIONAL WEATHER ROUNDUP
NATIONAL WEATHER SERVICE SAN ANGELO TX
800 PM CST THU FEB 23 2017

NOTE: "FAIR" INDICATES FEW OR NO CLOUDS BELOW 12,000 FEET WITH NO
SIGNIFICANT WEATHER AND/OR OBSTRUCTIONS TO VISIBILITY.

TXZ049-054-064>066-071>073-076>078-098-099-113-114-127-128-139-140-
154-155-168>170-240300
...LOCATIONS ACROSS WEST CENTRAL TEXAS...

CITY           SKY/WX    TMP DP  RH WIND       PRES   REMARKS
SAN ANGELO     CLEAR     72  31  22 W7        29.58R
ABILENE        PTCLDY    73  27  18 MISG      29.56R
DYESS AFB      CLEAR     73  33  22 W12       29.54R
JUNCTION       CLEAR     72  34  24 S8        29.59R
SWEETWATER     CLEAR     74  18  12 W14       29.62R
BROWNWOOD      CLEAR     68  45  42 S3        29.54R
COLEMAN        CLEAR     74  35  24 W8        29.56R
SONORA         CLEAR     68  27  21 CALM      29.65R
OZONA          FAIR      66  27  22 MISG      29.65R
BRADY          NOT AVBL
$$

TEXAS PANHANDLE/OKLAHOMA PANHANDLE

CITY           SKY/WX    TMP DP  RH WIND       PRES   REMARKS
AMARILLO       CLEAR     55  11  17 W8        29.55R
BORGER         CLEAR     62   5  10 W12       29.54R
CANADIAN       PTCLDY    68   1   7 W16G23    29.49R
DALHART        CLEAR     55   6  14 W25G32    29.57R
DUMAS          CLEAR     52   5  15 W13       29.55R
GUYMON         NOT AVBL
HEREFORD       CLEAR     58   9  14 W13G22    29.58R
PAMPA          CLEAR     58   8  13 NW10      29.55R
PERRYTON       CLEAR     48  35  59 N22       29.55R
$$

SOUTHERN PANHANDLE/SOUTH PLAINS/ROLLING PLAINS

CITY           SKY/WX    TMP DP  RH WIND       PRES   REMARKS
LUBBOCK        CLEAR     68  13  12 SW25G35   29.58R
SNYDER         CLEAR     70  22  16 W10       29.61R
CHILDRESS      CLEAR     67  21  17 W8        29.49R
SEMINOLE       CLEAR     65  22  20 W10       29.67R
$$

PERMIAN BASIN

CITY           SKY/WX    TMP DP  RH WIND       PRES   REMARKS
MIDLAND        CLEAR     71  17  12 W15       29.65R
ODESSA         CLEAR     71  14  11 W12       29.66R
WINK             N/A     73  10   9 W23G32    29.64R
$$

FAR WEST/SOUTHWEST MOUNTAINS/TRANS PECOS

CITY           SKY/WX    TMP DP  RH WIND       PRES   REMARKS
ALPINE         PTCLDY    69  11  10 W14G21    29.83R
DRYDEN           N/A     72  21  14 SW7       29.60R
EL PASO        CLEAR     65  10  11 W21       29.76R
FORT STOCKTON  CLOUDY    75  12   9 W17       29.67R
GUADALUPE PASS CLEAR     59  10  14 SW37G49   29.77R
MARFA          CLEAR     63   9  12 W15       29.82R
PECOS          CLEAR     73  18  12 W16       29.66R
$$

DALLAS/FORT WORTH METROPLEX

CITY           SKY/WX    TMP DP  RH WIND       PRES   REMARKS
DFW AIRPORT    PTCLDY    79  55  43 S21G29    29.48S
FTW MEACHAM    CLEAR     78  49  35 S16       29.49R
DAL-EXECUTIVE  CLEAR     77  56  48 S20G25    29.51R
GRAND PRAIRIE  CLEAR     77  54  44 S13G22    29.52R
ADDISON        CLEAR     79  52  38 S17G26    29.51R
MESQUITE       CLEAR     73  54  49 SE14      29.53R
LANCASTER      CLEAR     74  55  50 S14       29.54R
$$

NORTH CENTRAL TEXAS

CITY           SKY/WX    TMP DP  RH WIND       PRES   REMARKS
SHRMAN/DENISON CLEAR     74  49  41 S13       29.49R
GAINESVILLE    CLEAR     73  48  41 S14       29.49R
BRIDGEPORT     CLEAR     78  47  34 S15G22    29.49R
DENTON         CLEAR     77  52  41 S17G26    29.48R
WAXAHACHIE     CLEAR     73  58  57 S13G20    29.54R
GRANBURY       CLEAR     77  50  39 SE12      29.52R
$$

WESTERN NORTH TEXAS

CITY           SKY/WX    TMP DP  RH WIND       PRES   REMARKS
WICHITA FALLS  CLOUDY    75  38  26 SW10      29.44R
VERNON         CLEAR     71  24  17 SW9       29.45S
BRECKENRIDGE   CLEAR     76  35  22 SW8       29.51R
COMANCHE       CLEAR     73  37  27 S8        29.54R
$$

CENTRAL AND SOUTH CENTRAL TEXAS

CITY           SKY/WX    TMP DP  RH WIND       PRES   REMARKS
AUSTIN/BERGSTM CLEAR     74  60  61 S12       29.60R
WACO           CLEAR     75  56  51 S16       29.55R
HILLSBORO      CLEAR     73  60  63 SE18      29.54R
TEMPLE         CLEAR     74  59  59 SE15      29.57R
KILLEEN-GRAY   CLEAR     73  52  47 S12       29.56R
FORT HOOD      CLEAR     75  53  47 SE10      29.54R
GEORGETOWN     CLEAR     79  52  38 SE7       29.58R
LAGO VISTA     FAIR      77  53  43 SE12G18   29.61R
SAN MARCOS     CLEAR     72  55  56 S9        29.62R
NEW BRAUNFELS  CLEAR     74  59  59 S14       29.59R
RANDOLPH AFB   CLEAR     73  61  66 SE13      29.60R
SAN ANTONIO    CLEAR     75  61  61 SE12      29.60R
STINSON        CLEAR     77  61  57 SE14      29.57R
PLEASANTON     NOT AVBL
LA GRANGE      CLEAR     71  65  82 SE10G17   29.61R
GIDDINGS       CLEAR    N/A N/A N/A S10       29.63R
$$

EAST TEXAS

CITY           SKY/WX    TMP DP  RH WIND       PRES   REMARKS
PARIS          CLEAR     70  48  46 S13       29.53S
CLARKSVILLE    NOT AVBL
TYLER          CLEAR     73  55  53 S14       29.59R
LONGVIEW       CLEAR     73  59  61 S14       29.59S
PALESTINE      CLEAR     73  60  63 SE12      29.60R
NACOGDOCHES    CLEAR     70  54  56 S10       29.63R
$$

TEXAS HILL COUNTRY AND EDWARDS PLATEAU

CITY           SKY/WX    TMP DP  RH WIND       PRES   REMARKS
LLANO          CLEAR     73  46  38 CALM      29.59R
HORSESHOE BAY    N/A     77  49  36 S10G17    29.58R
KERRVILLE      CLEAR     68  46  45 E3        29.63R
FREDERICKSBRG  CLEAR     72  40  30 S6        29.61R
ROCKSPRINGS    CLEAR     72  37  28 S7        29.66S
HONDO          CLEAR     78  45  30 SE12      29.57R
UVALDE         CLEAR     74  42  31 CALM      29.56S
DEL RIO        CLEAR     81  37  20 NE5       29.55R
$$

SOUTHEAST TEXAS

CITY           SKY/WX    TMP DP  RH WIND       PRES   REMARKS
COLLEGE STN    CLEAR     71  58  63 S12       29.62R
CALDWELL       NOT AVBL
CROCKETT       CLEAR     70  57  64 S9G18     29.66R
BRENHAM        CLEAR     72  61  68 S9        29.64R
HUNTSVILLE     CLEAR     71  58  63 SE10G20   29.62S
CONROE         CLEAR     67  60  78 SE10      29.66R
HOUSTON BUSH   CLEAR     68  58  70 S12       29.67S
HOUSTON HOBBY  CLEAR     66  62  87 SE8       29.68R
PERLAND        CLEAR     68  63  84 SE8       29.70S
WHARTON        CLEAR     66  62  87 SE12      29.66S FOG
$$

THE UPPER TEXAS COAST

CITY           SKY/WX    TMP DP  RH WIND       PRES   REMARKS
ORANGE         CLEAR     65  64  94 SE5       29.74R
PORT ARTHUR    CLEAR     66  61  84 SE10      29.71R
GALVESTON      CLEAR     68  65  90 SE16      29.70S
ANGLETON       CLEAR     67  63  87 SE8       29.69R
BAY CITY       CLEAR     67  65  91 SE10      29.67S
$$

TEXAS COASTAL BEND, RIO GRANDE PLAINS DEEP SOUTH TEXAS

CITY           SKY/WX    TMP DP  RH WIND       PRES   REMARKS
VICTORIA       MOCLDY    69  66  90 SE12      29.65R
BEEVILLE       FAIR      70  66  87 SE12      29.62R
ROCKPORT         N/A     71  67  87 SE14      29.62R
PORT ARANSAS   CLEAR     71  69  93 SE17G24   29.62R
PORT LAVACA    CLEAR     69  68  98 SE15      29.64S
CORPUS CHRISTI CLEAR     72  67  84 SE22      29.61R
KINGSVILLE NAS CLEAR     72  69  90 SE18G28   29.60R
COTULLA        CLEAR     78  39  24 SE9       29.54R
LAREDO         CLEAR     84  37  18 E5        29.55R
BROWNSVILLE    CLEAR     72  67  84 SE12      29.62R
PORT ISABEL    CLEAR     72  67  84 SE12      29.60R
HEBBRONVILLE   CLEAR     80  46  29 S9        29.59R
MCALLEN        CLEAR     77  58  51 SE15      29.60R
WESLACO        CLEAR     74  62  65 S14       29.59R
FALFURRIAS     CLEAR     75  65  69 SE10      29.58R
EDINBURG       CLEAR     78  56  46 SE12G18   29.59R
$$



USA.gov is the U.S. government's official web portal to all federal, state and local government web resources and services.